This demonstration page uses our WeatherBlox Daily Observations layout. Learn more.

Left ArrowRight Arrow

39.95238, -75.16362

Hourly Observations for May 28, 2018

Temp ( °F °C ) Dew Point ( °F °C ) Humidity (%) Winds ( mph kmh ) Pressure ( in mb ) Visibility ( mi km ) Precip ( " mm )
12:54 am 00:54 Cloudy 58 14.4 55 12.8 90 90 ENE 9 15 30.09 1019 10 16 0.00 0.00
1:54 am 01:54 Cloudy 57 13.9 55 12.8 93 93 E 10 17 30.07 1018 10 16 0.00 0.00
2:21 am 02:21 Cloudy 57 13.9 55 12.8 93 93 ENE 8 13 30.09 1019 7 11 0.00 0.00
2:42 am 02:42 Cloudy 57 13.9 55 12.8 93 93 E 8 13 30.06 1018 10 16 0.00 0.00
2:54 am 02:54 Cloudy 57 13.9 55 12.8 93 93 NE 6 9 30.07 1018 10 16 0.00 0.00
3:54 am 03:54 Cloudy 57 13.9 55 12.8 93 93 NE 8 13 30.05 1018 10 16 0.00 0.00
4:54 am 04:54 Cloudy 57 13.9 55 12.8 93 93 ENE 7 11 30.06 1018 10 16 0.00 0.00
5:54 am 05:54 Cloudy 57 13.9 54 12.2 90 90 ENE 6 9 30.08 1019 10 16 0.00 0.00
6:54 am 06:54 Cloudy 57 13.9 54 12.2 90 90 ESE 8 13 30.08 1019 10 16 0.00 0.00
7:54 am 07:54 Cloudy 57 13.9 54 12.2 90 90 ESE 7 11 30.09 1019 8 13 0.00 0.00
8:54 am 08:54 Cloudy 58 14.4 55 12.8 90 90 ESE 7 11 30.09 1019 7 11 0.00 0.00
9:54 am 09:54 Cloudy 59 15 55 12.8 87 87 Calm 30.10 1019 10 16 0.00 0.00
10:29 am 10:29 Cloudy 59 15 55 12.8 87 87 Calm 30.12 1020 10 16 0.00 0.00
10:54 am 10:54 Cloudy 61 16.1 55 12.8 81 81 VRB 5 7 30.11 1020 10 16 0.00 0.00
11:50 am 11:50 Cloudy 63 17 55 13 77 77 VRB 3 6 30.12 1020 10 16 0.00 0.00
12:37 pm 12:37 Cloudy 63 17.2 57 13.9 81 81 Calm 30.12 1020 10 16 0.00 0.00
12:54 pm 12:54 Cloudy 66 18.9 57 13.9 73 73 Calm 30.09 1019 10 16 0.00 0.00
1:54 pm 13:54 Cloudy 66 18.9 58 14.4 75 75 VRB 6 9 30.08 1019 10 16 0.00 0.00
2:54 pm 14:54 Cloudy 68 20 59 15 73 73 VRB 3 6 30.06 1018 10 16 0.00 0.00
3:29 pm 15:29 Cloudy 69 20.6 60 15.6 73 73 SSW 5 7 30.06 1018 10 16 0.00 0.00
3:54 pm 15:54 Cloudy 69 20.6 60 15.6 73 73 VRB 3 6 30.05 1018 10 16 0.00 0.00
4:54 pm 16:54 Cloudy 70 21.1 61 16.1 73 73 SW 6 9 30.04 1017 10 16 0.00 0.00
5:54 pm 17:54 Cloudy 70 21.1 62 16.7 76 76 WSW 9 15 30.04 1017 10 16 0.00 0.00
6:54 pm 18:54 Cloudy 70 21.1 62 16.7 76 76 SSW 8 13 30.04 1017 10 16 0.00 0.00
7:31 pm 19:31 Cloudy 69 20.6 62 16.7 78 78 SSW 9 15 30.03 1017 10 16 0.00 0.00
7:54 pm 19:54 Cloudy 68 20 62 16.7 81 81 SSW 10 17 30.02 1017 10 16 0.00 0.00
8:54 pm 20:54 Cloudy 68 20 62 16.7 81 81 SSW 8 13 30.04 1017 10 16 0.00 0.00
9:10 pm 21:10 Cloudy 67 19.4 62 16.7 84 84 SSW 9 15 30.03 1017 10 16 0.00 0.00
9:54 pm 21:54 Cloudy 67 19.4 62 16.7 84 84 SSW 8 13 30.04 1017 10 16 0.00 0.00
10:54 pm 22:54 Cloudy 65 18.3 62 16.7 90 90 SSW 7 11 30.05 1018 10 16 0.00 0.00
11:09 pm 23:09 Cloudy 66 18.9 62 16.7 87 87 SSW 6 9 30.06 1018 10 16 0.00 0.00
11:47 pm 23:47 Cloudy 65 18.3 62 16.7 90 90 S 9 15 30.03 1017 10 16 0.00 0.00
11:54 pm 23:54 Cloudy 65 18.3 62 16.7 90 90 S 8 13 30.04 1017 10 16 0.00 0.00

Powered by AerisWeather